CW7858 Murcia ES current weather conditions

sailwx.info

Wind from 071 at 3 knots gusting 9

Air temperature 23.9° C
Dewpoint 20.4° C

Last reported at 2019-Sep-20 20:02 UTC.
Time now 2019-Sep-20 20:40 UTC

Location: N 37°60' W 001°08'.
View on Google Maps.

See reports from other nearby stations

  
Tides and Currents Weather Stations Pressure Air Temp Water Temp Dewpoint Dewpoint Depression Visibility Wind Speed Wind Dir Waves Ship Positions
date/time (UTC)wind fromknots sea level pressurealtimeterstation pressurevisibilityair tempwater tempwave heightnotes
2019-Sep-20 20:02 071 3 gusting 9 23.9
2019-Sep-20 19:52 095 3 gusting 10 23.9
2019-Sep-20 19:42 068 4 gusting 9 23.9
2019-Sep-20 19:32 088 4 gusting 8 23.9
2019-Sep-20 19:22 044 5 gusting 9 23.9
2019-Sep-20 19:12 069 0 gusting 5 24.4
2019-Sep-20 19:02 052 0 gusting 5 24.4
2019-Sep-20 18:52 085 0 gusting 5 24.4
2019-Sep-20 18:42 124 0 gusting 6 24.4
2019-Sep-20 18:32 102 3 gusting 8 24.4
2019-Sep-20 18:22 126 4 gusting 6 24.4
2019-Sep-20 18:12 066 3 gusting 8 24.4
2019-Sep-20 18:02 058 1 gusting 9 24.4
2019-Sep-20 17:52 092 3 gusting 10 24.4
2019-Sep-20 17:42 052 3 gusting 5 25.0
2019-Sep-20 17:32 068 6 gusting 10 25.0
2019-Sep-20 17:22 079 5 gusting 10 25.0
2019-Sep-20 17:12 078 4 gusting 11 25.0
2019-Sep-20 17:02 119 2 gusting 10 25.0
2019-Sep-20 16:53 080 5 gusting 10 25.0
2019-Sep-20 16:42 064 5 gusting 8 25.0
2019-Sep-20 16:33 085 4 gusting 10 25.0
2019-Sep-20 16:22 092 3 gusting 10 25.0
2019-Sep-20 16:12 069 3 gusting 11 25.6
2019-Sep-20 16:02 079 6 gusting 11 25.0
2019-Sep-20 15:52 078 5 gusting 13 25.6
2019-Sep-20 15:42 089 6 gusting 11 25.6
2019-Sep-20 15:32 093 8 gusting 12 25.6
2019-Sep-20 15:22 075 5 gusting 10 25.6
2019-Sep-20 15:12 104 4 gusting 14 25.6
2019-Sep-20 15:02 298 4 gusting 12 26.1
2019-Sep-20 14:52 346 2 gusting 9 26.1
2019-Sep-20 14:42 131 3 gusting 10 26.1
2019-Sep-20 14:32 045 4 gusting 12 26.1
2019-Sep-20 14:22 090 6 gusting 11 25.6
2019-Sep-20 14:12 086 5 gusting 10 26.1
2019-Sep-20 14:02 083 7 gusting 13 26.1
2019-Sep-20 13:52 079 7 gusting 10 26.1
2019-Sep-20 13:42 113 3 gusting 10 26.1
2019-Sep-20 13:32 027 4 gusting 12 25.6
2019-Sep-20 13:22 107 4 gusting 12 25.6
2019-Sep-20 13:12 044 6 gusting 15 25.6
2019-Sep-20 13:02 056 7 gusting 14 26.1
2019-Sep-20 12:52 116 7 gusting 14 26.1
2019-Sep-20 12:42 121 7 gusting 12 26.7
2019-Sep-20 12:32 010 4 gusting 13 26.7
2019-Sep-20 12:22 071 4 gusting 15 26.7
2019-Sep-20 12:12 064 6 gusting 13 26.1
2019-Sep-20 12:02 092 3 gusting 10 26.1
2019-Sep-20 11:52 080 3 gusting 14 26.1
2019-Sep-20 11:42 071 5 gusting 10 26.1
2019-Sep-20 11:32 089 3 gusting 11 25.6
2019-Sep-20 11:22 090 8 gusting 11 25.6
2019-Sep-20 11:12 106 6 gusting 11 26.1
2019-Sep-20 11:02 086 4 gusting 11 26.1
2019-Sep-20 10:52 027 4 gusting 11 26.1
2019-Sep-20 10:42 075 2 gusting 10 25.6
2019-Sep-20 10:32 079 3 gusting 11 25.6
2019-Sep-20 10:22 076 1 gusting 6 25.6
2019-Sep-20 10:12 078 3 gusting 6 25.6
2019-Sep-20 10:02 073 2 gusting 10 25.6
2019-Sep-20 09:52 116 4 gusting 10 25.6
2019-Sep-20 09:42 106 2 gusting 8 25.0
2019-Sep-20 09:32 021 2 gusting 8 25.0
2019-Sep-20 09:22 079 2 gusting 6 25.0
2019-Sep-20 09:12 080 0 gusting 6 24.4
2019-Sep-20 09:02 095 4 gusting 9 25.0
2019-Sep-20 08:52 068 0 gusting 9 24.4
2019-Sep-20 08:42 032 2 gusting 6 23.9
2019-Sep-20 08:32 037 2 gusting 6 23.9
2019-Sep-20 08:22 099 0 gusting 2 23.9
2019-Sep-20 08:12 061 0 gusting 5 23.3
2019-Sep-20 08:02 251 0 gusting 1 23.3
2019-Sep-20 07:52 230 0 gusting 4 23.3
2019-Sep-20 07:42 205 0 gusting 2 23.3
2019-Sep-20 07:32 109 22.8
2019-Sep-20 07:22 109 1 gusting 3 22.8
2019-Sep-20 07:12 006 0 gusting 1 22.8
2019-Sep-20 07:02 006 22.8
2019-Sep-20 06:52 004 1 gusting 2 22.8
2019-Sep-20 06:42 007 0 gusting 1 22.8
2019-Sep-20 06:32 058 1 gusting 3 22.8
2019-Sep-20 06:22 058 0 gusting 2 22.8
2019-Sep-20 06:12 058 0 gusting 4 22.8
2019-Sep-20 06:02 079 22.8
2019-Sep-20 05:52 068 0 gusting 2 22.8
2019-Sep-20 05:42 117 22.8
2019-Sep-20 05:32 117 22.8
2019-Sep-20 05:22 061 0 gusting 2 22.8
2019-Sep-20 05:12 222 22.8
2019-Sep-20 05:02 222 0 gusting 1 22.2
2019-Sep-20 04:52 222 22.2
2019-Sep-20 04:42 222 22.2
2019-Sep-20 04:32 222 22.2
2019-Sep-20 04:22 222 22.2
2019-Sep-20 04:12 222 22.2
2019-Sep-20 04:02 222 22.2
2019-Sep-20 03:52 222 22.2
2019-Sep-20 03:42 222 22.2
2019-Sep-20 03:32 222 22.2
2019-Sep-20 03:22 222 0 gusting 2 22.2
2019-Sep-20 03:12 220 1 gusting 4 22.2
2019-Sep-20 03:02 233 22.2
2019-Sep-20 02:52 236 22.8
2019-Sep-20 02:42 236 22.8
2019-Sep-20 02:32 236 22.8
2019-Sep-20 02:22 236 22.8
2019-Sep-20 02:12 236 22.8
2019-Sep-20 02:02 236 22.8
2019-Sep-20 01:52 239 22.8
2019-Sep-20 01:42 239 22.8
2019-Sep-20 01:32 239 0 gusting 1 22.8
2019-Sep-20 01:22 250 1 gusting 3 22.8
2019-Sep-20 01:12 220 0 gusting 1 22.8
2019-Sep-20 01:02 217 22.8
2019-Sep-20 00:52 206 22.8
2019-Sep-20 00:42 206 23.3
2019-Sep-20 00:32 040 23.3
2019-Sep-20 00:22 040 23.3
2019-Sep-20 00:12 040 23.3
2019-Sep-20 00:02 040 23.3
2019-Sep-19 23:52 040 23.3
2019-Sep-19 23:42 040 23.3
2019-Sep-19 23:32 003 0 gusting 1 23.3
2019-Sep-19 23:22 003 23.3
2019-Sep-19 23:12 003 0 gusting 1 23.3
2019-Sep-19 23:02 003 0 gusting 2 23.3
2019-Sep-19 22:52 083 23.3
2019-Sep-19 22:42 083 23.3
2019-Sep-19 22:32 083 23.3
2019-Sep-19 22:22 083 23.3
2019-Sep-19 22:12 083 23.3
2019-Sep-19 22:02 083 23.3
2019-Sep-19 21:52 085 23.3
2019-Sep-19 21:42 085 23.3
2019-Sep-19 21:32 086 23.3
2019-Sep-19 21:22 100 0 gusting 4 23.3
2019-Sep-19 21:12 071 0 gusting 2 23.3
2019-Sep-19 21:02 037 0 gusting 2 23.9
2019-Sep-19 20:52 016 0 gusting 2 23.9
2019-Sep-19 20:42 059 1 gusting 3 23.9
2019-Sep-19 20:32 112 1 gusting 2 23.9
2019-Sep-19 20:22 078 1 gusting 5 23.9
2019-Sep-19 20:12 102 23.9
2019-Sep-19 20:02 099 23.9
2019-Sep-19 19:52 079 2 gusting 6 24.4
2019-Sep-19 19:42 049 1 gusting 5 24.4
2019-Sep-19 19:32 055 0 gusting 6 24.4
2019-Sep-19 19:22 106 3 gusting 8 24.4
2019-Sep-19 19:12 093 3 gusting 5 25.0
2019-Sep-19 19:02 080 2 gusting 6 25.0
2019-Sep-19 18:52 023 2 gusting 4 25.0
2019-Sep-19 18:42 104 3 gusting 6 25.0
2019-Sep-19 18:32 086 2 gusting 6 25.0
2019-Sep-19 18:22 028 4 gusting 11 25.6
2019-Sep-19 18:12 096 3 gusting 9 25.6
2019-Sep-19 18:02 086 3 gusting 10 25.6
2019-Sep-19 17:52 127 5 gusting 10 26.1
2019-Sep-19 17:42 102 5 gusting 11 26.7
2019-Sep-19 17:32 085 5 gusting 11 26.7
2019-Sep-19 17:22 030 2 gusting 6 27.2
2019-Sep-19 17:12 093 5 gusting 10 27.2
2019-Sep-19 17:02 035 2 gusting 8 27.8
2019-Sep-19 16:52 085 5 gusting 11 27.8
2019-Sep-19 16:42 076 5 gusting 11 27.8
2019-Sep-19 16:32 027 4 gusting 9 27.8
2019-Sep-19 16:22 069 5 gusting 8 28.3
2019-Sep-19 16:12 099 5 gusting 10 28.3
2019-Sep-19 16:02 078 7 gusting 10 28.3
2019-Sep-19 15:52 079 2 gusting 11 28.3
2019-Sep-19 15:42 080 4 gusting 9 28.3
2019-Sep-19 15:32 042 6 gusting 9 28.3
2019-Sep-19 15:22 097 2 gusting 9 28.3
2019-Sep-19 15:12 072 5 gusting 8 28.3
2019-Sep-19 15:02 073 1 gusting 10 28.3
2019-Sep-19 14:52 357 4 gusting 9 28.3
2019-Sep-19 14:42 076 4 gusting 9 28.3
2019-Sep-19 14:32 114 4 gusting 12 28.3
2019-Sep-19 14:22 073 6 gusting 8 28.3
2019-Sep-19 14:12 080 2 gusting 9 28.3
2019-Sep-19 14:02 062 4 gusting 9 28.3
2019-Sep-19 13:52 103 3 gusting 12 28.3
2019-Sep-19 13:42 072 1 gusting 9 28.3
2019-Sep-19 13:32 076 3 gusting 8 28.3
2019-Sep-19 13:22 096 4 gusting 10 27.8
2019-Sep-19 13:12 075 3 gusting 11 28.3
2019-Sep-19 13:02 076 0 gusting 10 28.3
2019-Sep-19 12:52 038 5 gusting 8 28.3
2019-Sep-19 12:42 054 3 gusting 10 27.8
2019-Sep-19 12:32 066 6 gusting 11 27.8
2019-Sep-19 12:22 121 5 gusting 11 27.8
2019-Sep-19 12:12 117 0 gusting 8 27.8
2019-Sep-19 12:02 085 5 gusting 8 27.8
2019-Sep-19 11:52 075 2 gusting 8 27.8
2019-Sep-19 11:42 064 1 gusting 10 27.2
2019-Sep-19 11:32 078 2 gusting 9 27.2
2019-Sep-19 11:22 109 4 gusting 7 27.2
2019-Sep-19 11:12 055 4 gusting 8 27.2
2019-Sep-19 11:02 052 1 gusting 5 27.8
2019-Sep-19 10:52 066 0 gusting 6 27.2
2019-Sep-19 10:42 103 5 gusting 9 26.7
2019-Sep-19 10:32 065 1 gusting 8 26.7
2019-Sep-19 10:22 093 3 gusting 6 26.7
2019-Sep-19 10:12 045 1 gusting 5 26.7
2019-Sep-19 10:02 017 4 gusting 6 26.7
2019-Sep-19 09:52 075 26.7
2019-Sep-19 09:42 066 26.7
2019-Sep-19 09:32 195 26.7
2019-Sep-19 09:22 195 26.1
2019-Sep-19 09:12 193 26.1
2019-Sep-19 09:02 192 25.6
2019-Sep-19 08:52 192 25.0
2019-Sep-19 08:42 191 24.4
2019-Sep-19 08:32 191 23.9
2019-Sep-19 08:22 189 23.9
2019-Sep-19 08:12 219 23.3
2019-Sep-19 08:02 246 22.8
2019-Sep-19 07:52 246 22.2
2019-Sep-19 07:42 246 22.2
2019-Sep-19 07:32 246 21.7
2019-Sep-19 07:22 246 21.7
2019-Sep-19 07:12 246 21.1
2019-Sep-19 07:02 246 21.1
2019-Sep-19 06:52 246 20.6
2019-Sep-19 06:42 246 20.6
2019-Sep-19 06:32 246 20.0
2019-Sep-19 06:22 246 20.0
2019-Sep-19 06:12 246 20.0
2019-Sep-19 06:02 246 20.0
2019-Sep-19 05:52 246 20.0
2019-Sep-19 05:42 246 20.0
2019-Sep-19 05:32 253 20.0
2019-Sep-19 05:22 234 20.0
2019-Sep-19 05:12 267 20.0
2019-Sep-19 05:02 258 1 gusting 2 20.0
2019-Sep-19 04:52 247 1 gusting 2 20.0
2019-Sep-19 04:42 232 0 gusting 1 20.6
2019-Sep-19 04:32 243 20.6
2019-Sep-19 04:22 243 20.6
2019-Sep-19 04:12 243 0 gusting 2 20.6
2019-Sep-19 04:02 243 20.6
2019-Sep-19 03:52 243 20.6
2019-Sep-19 03:42 243 20.6
2019-Sep-19 03:32 243 20.6
2019-Sep-19 03:22 243 0 gusting 1 21.1
2019-Sep-19 03:12 243 21.1
2019-Sep-19 03:02 243 0 gusting 2 21.1
2019-Sep-19 02:52 237 0 gusting 1 21.1
2019-Sep-19 02:42 239 0 gusting 0 21.1
2019-Sep-19 02:32 239 21.1
2019-Sep-19 02:22 239 21.1
2019-Sep-19 02:12 239 21.7
2019-Sep-19 02:02 239 0 gusting 1 21.7
2019-Sep-19 01:52 239 0 gusting 1 21.7
2019-Sep-19 01:42 239 21.7
2019-Sep-19 01:32 239 0 gusting 2 21.7
2019-Sep-19 01:22 239 21.7
2019-Sep-19 01:12 213 21.7
2019-Sep-19 01:02 213 0 gusting 1 22.2
2019-Sep-19 00:52 213 22.2
2019-Sep-19 00:42 213 22.2
2019-Sep-19 00:32 213 22.2
2019-Sep-19 00:22 213 22.2
2019-Sep-19 00:12 213 0 gusting 1 22.2
2019-Sep-19 00:02 213 22.2
2019-Sep-18 23:52 213 22.2
2019-Sep-18 23:42 213 22.8
2019-Sep-18 23:33 216 22.8
2019-Sep-18 23:22 217 0 gusting 1 22.8
2019-Sep-18 23:12 099 23.3
2019-Sep-18 23:02 099 23.3
2019-Sep-18 22:52 099 23.3
2019-Sep-18 22:42 099 23.3
2019-Sep-18 22:32 099 23.3
2019-Sep-18 22:22 099 23.3
2019-Sep-18 22:12 099 23.3
2019-Sep-18 22:02 099 23.3
2019-Sep-18 21:52 099 23.3
2019-Sep-18 21:42 099 23.3
2019-Sep-18 21:32 066 1 gusting 4 23.9
2019-Sep-18 21:22 072 1 gusting 4 23.9
2019-Sep-18 21:12 058 23.9
2019-Sep-18 21:02 093 0 gusting 2 23.9
2019-Sep-18 20:52 093 23.9
2019-Sep-18 20:42 093 24.4
2019-Sep-18 20:32 093 24.4
2019-Sep-18 20:22 093 0 gusting 2 24.4
2019-Sep-18 20:12 086 24.4
2019-Sep-18 20:02 030 1 gusting 4 25.0